SES-2

Last updated on Thu Oct 30 2025 00:02:48 GMT+0000 (Coordinated Universal Time)

1 37809U 11049A 25302.45383095 -.00000186 00000+0 00000+0 0 9995 2 37809 0.0248 6.8846 0002408 218.8484 248.7037 1.00271104 51658
UTC large
Height (km)
Speed (km/s)
/
Latitude / Longitude
Inclination (degrees)
Orbital Period (minutes)
Azimuth
Elevation
Range (km)
Doppler Factor

Next 0 passes for location: London (51.5072 / 0.1276)

Sorry there are no passes over London.